Вернуться в каталог

COSMOS 1867 COOLANT

АктивенLEO
NORAD 39675·DEBRIS·🇷🇺 Russia

Запущен Jul 10, 1987 с Baikonur Cosmodrome

Loading…

Ближайшие Пролёты (ближайшие 24 часа)

TLE

СвежийSource: Space-Track

Эпоха: Sep 14, 2026, 08:09 UTC

1 39675U 87060AN  26257.33964982  .00000189  00000-0  10225-3 0  9998
2 39675  65.0059 116.1744 0018435 279.0727  80.8273 14.34575983649507

Отслеживайте COSMOS 1867 COOLANT в реальном времени с AllMySat

Download on the App Store